RH
3 2 2 2 2 2 1 2 2 2 1 1 1 1 1 1 1 1 1 2 2 3 3 3 4 3 3 3 3 2 3 2 2 3 1 3 2 2 3 2 3 2 3 3 4 8 11 20 26 30 37 36 39 43 36 50 65 60 67 69 66 67 64 69 68 64 51 29 24 23 22 23 24 22 26 35 29 22 28 31 28 21 18 17 14 14 15 16
3 3 3 2 2 2 2 2 1 2 1 1 1 1 1 1 1 1 1 1 1 2 3 3 4 4 3 3 3 2 3 2 3 2 1 3 1 2 2 2 3 2 4 2 4 6 9 19 21 27 38 39 40 39 41 56 60 58 67 70 69 67 60 58 52 48 44 30 22 20 23 29 35 37 43 47 29 20 27 25 24 17 14 15 14 15 15 14
3 3 3 2 2 2 2 2 2 2 1 2 1 1 1 1 1 1 2 1 1 2 2 3 3 4 4 3 3 3 3 3 3 2 2 2 2 3 1 2 3 2 3 2 4 3 8 15 20 35 42 40 37 39 53 55 54 58 64 66 59 50 42 39 42 43 39 32 26 21 20 22 31 41 47 49 35 27 26 18 18 15 13 15 15 16 15 15
3 3 3 3 2 2 2 1 2 2 2 2 1 2 1 1 1 1 2 1 1 2 2 3 3 4 4 3 3 3 3 3 3 2 2 2 2 2 2 3 1 3 3 2 4 2 6 10 22 36 35 43 38 44 69 57 58 73 69 64 51 38 29 30 43 41 36 37 30 20 17 16 22 33 38 45 40 32 27 15 13 14 14 16 16 17 17 17
4 4 3 3 2 3 2 2 2 1 2 2 1 1 1 2 1 1 1 1 1 1 2 2 3 4 4 4 3 4 4 3 3 2 2 2 2 2 2 3 1 3 2 2 4 2 5 5 17 23 27 60 54 52 76 55 61 78 64 58 49 34 24 31 45 39 34 35 29 23 19 14 18 27 34 48 54 47 36 14 5 9 11 15 16 17 18 18
5 4 3 3 3 3 2 2 2 2 2 1 2 1 1 2 1 1 1 1 2 1 2 2 3 4 4 4 3 4 4 4 4 2 2 2 2 2 2 3 2 2 2 3 2 2 6 2 9 11 26 68 62 57 64 42 60 70 44 40 39 28 20 22 30 33 35 32 31 27 18 11 15 20 21 33 41 39 31 13 7 9 7 11 14 15 16 16
6 5 4 3 3 3 2 2 2 2 2 1 2 1 2 2 1 2 1 1 1 1 2 1 3 3 4 4 3 5 4 4 4 2 3 2 2 2 2 2 2 3 2 3 2 3 4 3 8 8 31 61 57 59 43 28 64 71 41 30 29 25 21 23 28 34 33 26 27 22 14 10 12 15 12 14 15 15 16 14 18 12 4 7 10 11 13 14
6 6 5 3 3 3 3 3 2 2 2 2 2 2 2 2 2 1 1 1 1 2 1 1 3 3 4 4 3 5 4 5 4 3 2 2 3 2 2 2 2 3 2 3 2 3 3 4 5 9 46 62 51 51 30 35 69 59 38 29 24 23 27 37 34 28 23 23 26 17 14 12 13 18 14 13 7 6 11 14 15 7 3 5 6 9 10 12
5 6 6 4 3 3 3 3 2 3 2 2 2 2 2 2 2 1 1 1 1 2 1 1 2 2 4 3 4 4 4 5 4 4 2 2 3 1 3 1 3 2 2 4 1 4 3 5 10 23 64 69 46 40 29 52 70 43 32 27 22 23 31 41 30 24 25 24 21 12 13 11 12 18 16 12 7 6 10 11 11 6 5 6 6 7 7 9
4 6 7 6 4 3 3 3 3 3 2 2 2 2 2 2 2 2 1 1 1 2 1 1 1 2 4 3 4 3 4 5 4 5 2 2 2 1 3 1 3 2 2 4 1 5 3 10 21 21 44 49 39 40 38 58 60 37 35 29 27 28 33 40 30 27 27 22 18 12 12 10 11 17 15 9 4 5 7 9 12 7 6 9 8 7 6 7
4 6 6 6 6 4 3 3 3 3 2 3 2 2 2 2 2 2 2 2 1 1 1 1 1 2 3 3 4 3 4 4 4 5 3 3 2 2 3 1 3 2 2 3 2 4 2 8 12 12 31 32 32 45 46 57 54 39 36 28 31 36 36 38 32 25 24 24 24 19 16 15 16 17 17 16 9 4 4 6 7 6 7 8 7 6 6 6
3 5 6 7 6 5 3 3 3 3 3 3 2 2 2 2 2 2 2 2 1 1 1 1 1 1 3 3 3 3 4 4 4 5 3 3 2 2 2 2 2 2 3 2 3 3 3 4 2 22 44 35 38 45 38 44 46 39 37 35 33 35 36 36 34 25 22 23 23 33 33 23 24 20 13 17 16 8 4 4 3 6 6 5 6 6 6 6
3 4 6 7 7 6 4 3 3 3 4 3 3 3 2 2 2 2 2 2 2 1 1 1 1 1 2 3 3 3 3 4 5 4 4 3 2 3 2 3 2 2 3 1 4 2 3 5 1 16 29 43 54 39 34 36 34 43 46 46 44 42 40 33 32 23 19 21 24 53 57 32 30 24 13 13 15 14 8 4 4 4 5 5 6 5 5 6
3 3 5 7 7 7 5 4 3 3 4 3 3 3 2 2 2 2 2 2 2 1 1 1 1 1 1 3 3 3 3 4 5 4 5 3 2 3 1 3 2 2 3 1 4 2 3 3 3 6 9 43 46 24 52 46 31 59 55 49 63 68 54 31 28 25 28 28 22 55 62 34 28 22 18 15 12 17 13 9 8 6 6 5 5 5 5 6
3 4 5 6 7 7 6 4 3 3 4 3 4 3 3 3 2 3 2 2 2 1 2 1 1 1 1 3 2 3 4 3 5 4 5 4 2 3 1 3 2 2 3 2 3 2 4 1 5 9 2 23 20 19 69 60 45 74 64 63 79 88 79 42 25 30 42 35 21 61 73 40 30 22 18 17 14 19 16 11 11 11 10 6 4 6 5 6
3 4 4 6 7 7 6 5 4 3 3 3 4 4 3 3 2 3 2 2 2 1 2 1 1 2 1 2 2 3 4 3 5 4 5 4 2 3 2 3 2 2 2 2 3 1 4 2 5 12 4 8 12 30 73 74 71 73 65 83 83 87 97 60 32 32 43 37 25 59 77 52 36 27 21 18 17 17 14 11 8 9 13 12 8 5 5 9
4 3 4 6 7 7 7 5 4 3 3 3 4 4 4 4 3 3 2 2 2 2 2 1 1 2 1 2 2 3 3 3 4 4 5 4 3 3 2 3 2 3 3 2 4 2 3 4 3 7 6 4 14 47 75 75 78 70 68 86 77 83 100 77 51 37 32 37 37 52 70 63 39 28 24 17 17 16 15 15 8 9 12 13 13 8 6 9
4 4 4 6 7 8 7 6 5 4 4 3 3 4 4 4 4 3 3 2 3 2 2 2 1 1 1 1 2 2 3 3 4 4 5 4 4 3 2 3 2 2 4 2 2 3 2 4 4 4 6 6 19 54 71 63 66 69 69 78 78 82 93 88 71 48 30 30 45 55 64 61 34 27 28 18 23 21 18 19 11 9 9 10 11 8 9 9
4 4 4 6 8 9 7 6 5 4 5 4 3 4 4 4 4 3 3 2 3 2 2 2 1 1 1 1 2 2 3 3 4 4 4 4 4 3 2 2 3 2 3 3 3 3 3 3 4 5 4 8 27 55 68 61 57 60 63 68 78 80 79 83 71 56 42 33 43 48 55 58 36 32 32 21 26 24 20 22 17 13 7 10 9 5 10 10
5 4 4 5 8 10 9 6 5 5 5 5 4 4 4 4 4 4 3 3 3 3 2 2 1 2 1 1 1 2 3 3 4 4 4 5 4 3 3 2 3 4 2 3 3 2 4 3 2 7 11 15 28 49 61 54 44 53 64 62 69 75 72 75 67 54 43 41 49 43 48 59 41 31 29 25 29 27 25 21 20 22 11 8 8 6 9 9
5 5 4 5 8 12 11 7 5 5 5 6 6 5 5 4 4 4 3 3 3 3 2 2 2 1 1 1 1 2 3 3 4 4 4 4 4 3 3 3 2 3 2 3 3 3 4 3 3 7 20 24 21 37 55 51 43 52 61 57 61 67 68 75 71 55 41 44 58 48 43 51 43 34 28 25 27 30 38 31 19 22 17 12 10 8 10 9
6 6 5 5 8 12 13 8 5 5 5 6 6 6 6 5 5 5 4 4 3 3 3 1 2 1 1 1 1 2 2 3 3 4 5 4 4 4 3 3 3 3 4 2 3 4 2 5 6 5 21 32 24 31 47 45 43 51 53 51 55 55 63 79 67 46 40 46 60 55 39 39 42 39 28 24 27 27 39 41 24 18 18 17 13 10 12 10
7 6 6 5 8 13 15 9 5 5 5 6 7 7 7 5 5 5 4 4 3 3 2 2 2 1 1 1 1 2 2 4 4 3 5 4 4 4 3 3 3 3 3 3 4 4 2 5 8 13 31 44 38 32 31 26 30 46 53 50 50 47 57 77 64 42 37 38 51 56 48 48 47 41 29 23 29 27 28 31 24 20 17 16 16 13 12 12
8 7 6 6 8 13 16 11 6 4 4 6 7 7 7 6 6 5 5 4 3 3 2 2 2 1 2 1 1 3 2 3 4 4 4 4 4 3 3 4 3 3 3 3 5 4 5 3 5 24 37 34 32 25 16 20 30 41 53 52 48 45 49 65 67 56 42 30 38 49 58 65 51 39 34 26 27 26 24 22 17 22 19 13 16 15 13 15
8 8 7 7 8 13 17 13 6 4 4 5 7 8 7 6 5 5 4 4 4 3 3 2 2 1 1 2 2 2 3 3 3 5 4 4 5 3 4 3 3 4 2 4 5 4 7 4 6 30 32 13 18 22 12 23 42 44 46 49 45 41 42 52 63 62 47 33 33 37 50 70 63 44 39 34 27 23 27 29 25 29 24 12 13 15 15 16
8 9 8 7 9 13 19 16 8 4 4 4 7 8 7 6 6 5 4 4 4 3 3 2 2 2 2 2 3 2 3 4 3 4 4 4 4 3 4 3 3 5 4 5 4 4 14 15 14 24 20 7 13 25 19 24 46 47 42 49 49 41 38 43 54 59 52 47 50 43 43 70 85 67 54 47 35 24 26 30 30 29 21 12 13 13 15 17
9 9 9 7 9 14 20 18 10 5 4 4 7 7 7 7 5 5 5 4 5 4 3 3 2 3 3 2 3 3 3 4 4 5 4 4 4 3 4 3 4 6 5 6 3 7 21 21 14 12 12 11 13 23 26 25 43 48 40 47 50 45 43 43 51 60 59 57 65 59 44 58 77 69 64 66 57 41 27 23 28 28 18 11 12 14 16 17
10 9 10 8 9 14 21 20 11 6 5 5 6 7 8 7 5 6 4 6 10 5 2 4 3 4 4 2 3 3 4 4 4 5 4 4 4 4 5 4 4 5 4 5 5 8 13 12 9 9 12 13 13 27 35 28 40 50 44 47 52 48 46 46 51 60 62 60 63 59 50 61 69 60 61 65 61 51 34 28 36 34 24 15 14 17 17 17
10 10 10 9 9 14 22 21 12 6 5 5 6 8 8 6 7 5 3 11 17 9 3 4 3 5 5 2 4 4 4 5 4 4 5 4 5 4 4 5 4 6 4 4 15 20 12 10 12 11 13 18 24 42 51 39 42 53 50 54 60 50 42 50 58 60 61 63 61 59 63 72 67 60 65 60 51 48 37 33 44 39 22 13 15 18 17 18
10 10 10 10 11 15 21 21 13 6 5 6 6 8 9 7 7 5 4 14 19 11 5 5 4 5 6 3 4 5 3 5 4 5 5 4 5 4 4 6 3 6 7 7 29 46 30 14 12 15 26 42 48 53 56 47 45 50 50 55 64 57 51 59 64 64 69 69 61 62 75 77 63 63 74 68 54 54 50 40 38 36 23 12 13 16 15 18
10 10 10 11 12 15 19 19 13 6 6 6 7 9 9 7 7 5 7 16 22 17 6 5 6 5 6 5 4 5 4 5 5 5 5 4 5 5 4 6 4 7 11 10 24 39 28 14 13 19 32 51 58 51 45 38 33 44 54 58 63 64 64 65 66 70 72 66 56 56 70 74 68 64 68 70 63 58 61 52 38 36 30 17 13 14 15 17
11 11 10 12 14 17 18 17 12 7 6 6 8 10 8 10 7 4 18 30 27 21 11 6 7 6 7 7 5 5 4 5 5 4 5 5 5 6 5 6 5 6 10 12 18 20 14 13 17 20 25 38 53 51 41 32 28 42 61 64 62 66 69 67 67 71 65 58 56 58 63 66 68 62 55 67 74 64 56 45 38 41 35 21 15 17 17 16
12 11 11 13 16 18 17 15 11 8 8 7 9 11 9 11 7 3 34 54 37 30 27 12 6 7 9 8 6 7 6 6 6 4 6 5 5 6 5 6 6 8 12 17 27 29 21 23 24 23 22 26 43 54 46 39 37 46 61 64 60 61 66 64 62 65 64 59 57 59 60 61 64 61 50 53 65 71 58 31 25 38 34 25 19 17 18 18
12 12 12 15 17 18 16 15 11 7 10 10 10 13 10 10 10 6 35 63 53 46 41 22 9 9 12 11 8 7 6 7 6 6 7 5 7 7 5 9 6 9 26 32 37 40 38 42 29 16 21 21 29 48 51 49 48 49 59 65 61 57 58 59 55 54 57 56 55 59 59 59 61 55 47 42 41 50 47 24 21 31 26 23 19 14 18 22
13 14 14 17 19 19 17 14 11 9 12 14 12 13 11 9 10 10 29 56 65 57 39 23 16 11 11 14 14 11 8 9 7 6 9 6 8 8 5 11 6 10 38 48 45 43 44 53 35 17 32 29 23 43 54 54 53 48 52 58 59 59 54 54 54 54 56 55 60 66 61 62 61 45 38 42 38 37 33 21 22 24 17 17 17 13 17 22
14 17 17 20 21 19 19 15 12 11 11 16 15 12 12 9 8 26 49 57 64 65 45 25 17 14 16 18 22 18 9 14 14 6 9 8 8 10 6 10 8 12 40 50 47 45 42 51 48 37 43 31 24 49 54 45 46 47 48 49 53 57 52 51 52 54 58 56 58 62 56 61 65 54 48 44 35 32 27 17 17 17 13 13 14 13 15 16
15 20 19 22 22 20 21 16 13 13 12 16 16 11 12 10 12 47 76 66 65 76 63 40 23 19 25 25 31 31 15 20 23 10 13 13 9 13 10 12 12 9 28 42 43 46 40 43 50 47 46 35 33 54 54 41 44 48 48 48 53 60 58 56 54 54 61 59 54 54 53 60 66 64 65 54 39 37 31 21 17 17 15 14 14 15 15 14
16 21 21 23 24 22 22 19 15 14 14 15 14 12 12 10 24 63 81 68 70 76 65 60 47 30 29 32 39 43 27 22 23 14 22 24 16 19 17 21 23 10 22 42 42 43 42 41 46 47 49 45 39 49 53 44 45 49 51 50 55 62 61 59 56 55 64 65 58 56 57 63 63 59 63 62 55 51 43 30 22 19 20 17 15 15 15 15
19 20 23 23 23 23 22 21 18 15 16 14 12 14 11 13 44 76 70 53 58 50 33 50 65 46 33 36 44 46 30 23 23 16 23 30 25 25 23 29 34 19 25 46 44 44 47 45 50 53 56 51 37 38 49 48 42 41 49 57 58 57 57 58 56 56 61 62 58 55 55 59 59 55 60 63 54 43 36 27 20 22 24 20 17 16 16 16
25 20 23 24 23 25 23 22 21 16 15 12 11 15 13 14 37 54 46 40 47 37 17 36 73 69 48 41 45 48 32 23 28 23 23 32 33 31 28 36 46 33 27 39 46 53 54 47 50 56 61 61 44 31 38 51 50 36 41 59 61 55 56 59 63 66 64 58 56 53 52 57 60 58 59 60 55 48 40 26 18 22 24 21 19 17 16 16
34 22 23 25 24 25 24 23 22 17 15 13 13 17 18 18 23 26 31 34 34 32 22 29 62 77 65 52 47 50 40 26 32 34 29 34 42 42 38 40 46 38 29 30 37 50 54 49 51 54 62 69 57 37 32 45 55 48 47 58 57 52 56 60 64 67 63 57 57 57 54 55 56 56 58 59 61 61 49 29 20 21 21 21 20 16 16 16
46 28 22 26 26 24 24 24 22 20 18 14 14 19 22 22 21 20 27 29 25 29 27 23 43 66 70 64 54 51 46 34 35 38 33 36 43 44 41 37 34 35 36 31 29 39 49 51 51 49 57 70 64 47 40 45 52 54 53 54 54 53 55 58 59 60 61 62 60 58 57 56 53 54 58 59 58 54 41 28 24 22 20 22 20 16 16 15
54 33 23 27 28 26 25 24 23 21 19 16 19 25 23 18 18 18 23 29 29 31 28 23 35 53 59 60 59 56 49 42 45 43 36 38 41 42 43 36 27 31 38 35 32 38 44 49 52 49 53 63 64 56 52 54 57 58 55 53 55 57 55 58 61 60 65 74 72 66 62 57 54 54 56 54 50 41 31 27 26 21 20 22 20 16 17 15
53 41 30 30 29 28 25 24 27 25 21 19 20 22 22 19 19 20 24 33 37 36 36 31 31 42 49 51 59 65 56 49 52 49 41 42 42 44 51 42 26 31 37 32 34 41 42 40 44 51 56 55 59 64 58 49 49 55 58 54 53 56 56 58 62 59 65 75 78 75 68 60 58 59 57 54 50 41 31 27 25 21 20 23 21 16 16 16
47 46 39 35 29 28 27 26 31 33 29 27 26 26 29 27 23 23 26 33 38 38 40 39 36 40 45 43 46 57 62 61 55 47 42 45 47 50 56 42 24 31 38 30 35 48 50 43 35 42 55 50 50 63 60 45 40 44 50 53 54 55 52 54 56 57 62 67 69 75 74 65 61 61 58 52 45 42 40 33 27 23 21 22 21 17 15 16
36 42 43 43 35 31 32 28 29 35 35 39 45 45 39 31 24 24 28 34 38 38 36 37 38 37 40 43 40 41 58 65 55 46 41 41 46 53 55 38 22 30 36 30 41 51 46 46 40 31 40 50 56 65 64 54 49 45 42 44 51 53 52 54 55 58 67 67 67 75 73 62 58 60 66 63 45 38 44 39 31 27 23 22 22 18 16 15
30 37 40 46 41 32 33 32 29 34 37 42 51 48 39 34 26 20 26 35 39 38 36 37 38 35 35 44 45 39 46 47 42 52 56 44 45 55 51 34 21 27 29 25 37 41 28 39 49 32 27 43 56 65 67 60 57 58 52 48 51 52 53 56 55 58 68 72 75 80 71 61 59 56 62 65 45 33 39 38 34 31 22 20 23 21 17 16
33 39 37 40 43 39 37 36 31 32 35 39 42 37 33 33 27 20 26 35 34 34 39 38 38 38 35 38 43 43 44 40 35 49 60 51 51 55 44 29 22 26 30 27 32 33 27 37 47 34 23 27 36 50 60 55 51 56 58 55 56 54 52 57 60 60 64 68 70 70 63 62 63 59 61 61 47 40 42 38 33 28 19 16 19 19 17 16
44 47 42 37 41 43 39 34 30 30 31 34 35 35 33 30 26 24 28 33 33 35 41 37 34 41 38 32 38 47 51 52 48 47 50 50 55 55 41 30 28 28 31 35 35 34 34 34 31 29 31 28 26 37 52 57 57 59 60 59 59 59 58 62 65 62 61 62 56 54 59 62 61 63 64 54 42 41 41 35 30 25 19 17 17 18 18 17
59 58 54 43 37 40 42 37 37 41 40 36 37 39 37 34 30 25 23 33 44 45 43 41 39 39 33 28 41 57 60 58 59 56 49 45 53 60 51 38 34 28 27 35 39 36 36 33 27 39 57 54 43 45 56 63 63 62 63 60 56 58 61 62 63 61 64 67 58 52 60 61 57 60 55 39 37 45 45 40 34 25 20 19 18 19 19 17
72 66 63 55 41 36 43 42 41 48 47 40 41 43 40 37 33 23 19 34 52 48 40 43 41 33 32 35 44 57 60 60 64 63 51 41 46 54 52 44 40 36 34 38 41 38 36 34 32 44 59 57 53 60 63 60 57 56 60 61 58 57 58 59 63 65 67 68 59 52 54 55 55 59 52 41 47 54 48 40 32 23 19 18 19 19 17 17
79 74 67 65 53 38 38 42 42 47 48 43 41 41 40 37 31 24 23 35 50 51 46 48 42 36 47 54 46 46 56 65 72 70 60 53 50 49 51 52 50 50 46 43 41 37 35 41 43 44 45 44 53 64 60 57 62 59 54 59 62 61 59 60 65 70 70 65 57 54 59 60 58 58 55 49 48 45 38 31 25 20 19 18 18 18 16 16
Wind_Speed
29 29 28 28 27 26 24 23 21 19 18 17 16 14 14 13 13 12 11 11 10 8 7 5 3 0 3 5 6 6 6 5 5 4 5 6 9 10 10 11 12 13 13 14 16 17 19 19 20 21 19 17 14 11 12 12 11 16 17 8 8 7 2 2 2 4 4 3 4 4 5 5 6 8 8 9 9 9 11 11 11 11 11 11 11 12 11 11
29 29 30 30 29 28 27 25 23 22 20 19 18 15 15 14 14 13 12 12 11 10 9 7 5 2 1 4 5 6 6 5 5 4 4 5 8 10 10 10 12 13 14 14 16 17 19 20 21 22 18 16 14 13 12 9 10 16 10 5 10 7 3 2 1 3 5 3 4 4 5 5 6 6 6 8 8 8 9 9 10 11 11 11 11 11 11 10
28 29 31 31 31 30 29 27 25 24 23 21 20 18 16 16 16 14 13 13 12 12 10 8 6 4 1 2 4 5 6 5 5 4 3 5 7 9 9 10 12 14 14 15 15 17 19 20 21 19 16 16 15 13 11 12 17 18 10 1 4 6 2 3 2 4 6 5 6 5 5 5 5 5 6 6 7 7 7 8 9 9 10 10 10 10 10 10
26 29 31 32 32 32 31 30 28 27 25 24 22 20 18 17 17 16 14 13 13 13 11 10 8 6 3 2 3 4 6 5 5 5 4 4 6 8 9 10 11 13 14 15 15 16 18 18 18 15 16 16 14 13 7 7 15 14 9 8 8 2 3 3 4 5 6 7 6 5 5 5 5 6 7 7 7 6 6 7 8 9 10 9 10 10 10 9
25 27 30 32 33 33 33 31 30 29 28 26 25 23 21 19 18 17 16 15 15 14 13 11 9 8 5 3 2 3 5 4 5 5 4 3 5 7 9 10 12 14 15 15 15 16 16 17 17 15 16 11 8 12 4 5 10 5 8 11 5 3 4 4 6 6 7 6 5 5 4 5 6 6 7 7 7 6 6 7 9 10 10 9 8 9 9 8
26 26 28 31 33 34 34 33 32 31 30 29 27 25 23 21 19 18 17 16 16 15 15 13 11 10 7 5 3 3 4 4 5 5 4 3 4 6 9 11 12 14 16 16 16 16 15 16 17 16 15 9 7 8 5 8 11 2 5 7 3 3 4 5 6 6 6 5 4 4 4 5 6 7 8 8 8 7 7 8 9 11 11 9 8 8 8 8
27 27 27 29 32 34 35 34 33 32 32 31 29 27 26 24 21 20 19 18 17 16 16 15 13 12 10 7 5 4 3 4 5 5 4 3 3 6 9 11 13 15 17 17 16 16 15 16 15 16 16 10 10 8 10 9 9 6 5 6 5 5 5 5 6 6 6 5 3 3 4 6 6 7 9 9 8 8 8 8 9 10 10 9 8 7 7 7
28 27 27 28 30 33 35 35 35 34 33 33 31 29 28 26 24 22 21 20 18 17 17 17 16 13 12 9 7 6 4 4 4 5 3 3 3 5 8 11 14 16 18 18 17 17 15 15 13 15 16 7 10 11 11 9 5 8 7 5 6 5 5 6 5 5 4 5 3 2 4 6 8 8 9 9 8 8 8 8 9 9 9 9 8 7 6 6
29 28 28 27 28 31 34 36 36 35 35 34 33 31 30 28 26 24 22 21 20 19 19 18 18 15 14 12 9 8 6 5 4 4 3 3 3 5 7 11 14 17 18 18 18 18 15 15 13 13 12 9 11 12 12 10 5 6 7 6 7 6 6 6 4 4 3 4 3 2 3 6 9 8 9 9 8 9 8 8 8 9 9 8 8 7 6 5
31 29 29 28 28 29 32 35 36 36 36 36 35 33 32 30 29 26 24 23 22 21 20 20 19 18 16 14 12 10 9 7 4 4 3 2 3 5 6 10 14 17 19 19 18 19 18 16 14 12 12 15 13 10 11 7 13 7 7 6 7 5 6 5 4 3 2 4 3 3 3 5 8 8 8 8 8 9 8 9 8 8 8 8 8 7 7 5
32 31 29 29 28 28 31 34 36 37 37 37 36 34 33 32 30 28 25 24 24 23 22 21 21 20 18 16 14 11 9 8 5 4 3 1 3 5 6 9 13 16 19 20 19 18 18 17 16 14 10 13 14 12 11 9 16 8 7 6 6 5 5 4 4 3 2 3 2 4 4 4 6 7 8 9 9 8 8 9 8 8 7 7 8 7 7 6
32 32 30 29 29 28 29 32 35 37 37 38 37 36 35 33 32 30 27 26 26 25 23 23 22 21 20 18 15 13 11 9 7 5 4 1 2 5 7 9 12 15 18 20 20 18 17 16 18 17 10 11 12 11 11 12 12 9 7 6 5 4 3 3 4 2 2 1 2 4 4 3 3 5 9 11 11 9 7 9 7 7 7 6 7 7 6 6
32 32 31 30 29 29 29 31 34 36 37 38 37 37 36 34 33 31 29 28 28 27 26 24 23 23 22 19 18 16 13 10 8 6 4 3 2 5 7 9 11 13 16 19 20 19 18 17 17 16 15 15 11 9 11 12 10 8 7 7 5 4 3 3 2 2 2 2 2 3 2 2 2 3 7 10 11 10 8 8 7 6 6 6 6 6 6 6
31 32 32 31 30 29 30 30 32 35 37 38 37 37 37 35 34 32 31 30 29 28 27 26 25 25 23 21 20 18 14 11 10 8 6 4 3 5 7 10 11 12 14 17 20 20 19 17 15 13 16 18 14 10 11 11 9 8 8 7 6 5 3 2 1 2 1 2 2 2 1 2 1 1 5 7 9 10 9 7 6 5 5 6 6 6 6 6
29 32 32 32 31 30 30 30 31 34 37 38 37 37 37 36 35 33 32 32 31 30 29 28 26 25 24 24 23 20 17 14 12 10 8 5 4 6 7 10 11 12 13 14 18 20 19 17 15 12 14 17 16 12 11 10 10 11 8 7 8 8 7 4 1 2 1 2 2 1 2 2 0 1 2 5 7 8 9 7 6 5 5 6 5 6 6 6
26 30 32 32 31 31 31 31 32 33 35 37 37 37 37 37 36 34 34 33 33 32 31 29 28 27 27 27 25 23 20 17 13 12 10 7 6 7 8 10 11 12 13 14 17 19 19 19 15 14 15 16 16 14 11 9 10 12 10 11 11 12 12 9 3 3 2 3 2 1 4 3 2 1 1 2 5 6 7 7 6 5 5 5 5 5 5 5
24 28 31 32 32 31 31 31 32 33 35 36 37 37 37 37 36 35 35 34 34 33 32 31 29 28 26 25 25 24 22 18 16 14 12 9 8 8 8 10 11 12 13 14 18 18 20 19 13 13 16 15 15 15 12 10 11 11 8 13 12 11 11 9 5 5 3 4 1 1 4 3 3 2 2 1 2 4 5 5 5 5 5 5 5 6 5 4
23 25 29 32 32 32 32 32 32 33 34 35 37 37 37 37 36 36 36 35 35 35 34 33 31 30 29 28 28 27 24 21 18 15 14 12 10 10 10 10 11 12 13 13 16 18 19 18 14 14 16 15 16 17 15 12 11 11 7 11 11 11 13 11 9 7 4 5 3 3 5 5 5 4 3 1 1 1 3 4 5 5 5 6 7 7 5 5
22 24 27 30 32 32 32 32 32 33 34 35 36 37 37 37 36 36 36 36 35 35 35 34 33 34 33 32 32 29 25 23 19 17 16 14 12 11 11 12 12 13 13 14 15 16 17 18 17 16 16 16 17 18 17 11 9 11 10 11 12 11 13 11 10 8 5 5 5 5 7 7 6 5 4 2 1 1 1 2 3 3 4 5 6 7 7 7
22 23 25 28 31 32 32 32 32 33 34 34 35 36 37 37 37 38 37 36 36 36 36 35 35 35 32 33 32 28 26 24 22 19 17 16 14 13 13 13 14 13 14 14 14 15 16 17 16 14 14 15 18 20 18 11 9 12 12 13 11 11 11 11 11 9 6 6 7 8 8 8 7 6 6 4 3 2 1 1 2 1 2 3 4 5 7 8
22 22 23 26 30 31 32 32 33 33 33 34 34 34 35 37 39 38 36 37 38 37 37 36 36 35 34 33 31 29 29 27 25 22 19 18 17 15 14 14 14 13 14 14 15 15 16 17 15 14 15 16 19 22 20 17 19 17 14 14 12 11 11 14 14 9 7 7 9 9 8 9 9 8 8 6 5 4 3 2 2 2 1 1 3 4 5 7
22 22 22 25 28 30 31 32 33 32 33 34 34 33 34 36 38 38 37 37 38 38 37 37 36 36 34 33 32 33 32 30 27 24 22 21 18 16 15 15 14 13 14 15 16 15 14 15 15 14 15 14 17 22 21 22 26 21 14 14 14 10 10 16 17 10 8 9 10 10 9 10 11 10 10 9 7 6 5 5 4 4 3 2 3 4 5 6
22 22 22 23 27 29 30 31 32 32 33 33 34 33 33 35 37 38 37 37 38 38 38 37 37 36 35 35 35 34 32 30 28 26 23 21 19 18 17 16 16 16 16 16 15 14 12 14 16 15 15 14 18 22 22 21 22 20 16 16 15 13 14 19 17 11 9 10 11 11 10 12 13 11 11 11 10 9 7 7 7 6 6 4 4 4 5 6
22 22 22 23 25 28 29 30 31 32 32 33 34 33 33 34 36 37 37 37 38 38 38 38 37 36 35 36 36 35 33 32 30 27 25 23 21 19 18 18 18 18 17 17 16 14 12 14 15 16 17 20 23 24 22 19 16 16 17 16 14 14 16 17 15 15 12 10 11 11 11 13 14 13 13 12 11 11 10 9 9 8 8 7 6 5 5 6
22 22 22 22 24 27 29 29 30 31 32 33 34 33 33 33 35 36 36 36 36 37 37 38 37 36 36 36 36 36 35 34 32 30 28 25 22 21 20 20 19 19 18 17 18 16 15 16 18 19 19 20 22 22 21 19 14 12 16 18 14 12 15 14 15 20 15 10 12 12 12 14 15 15 14 14 13 12 11 11 11 10 9 9 9 8 6 6
23 21 22 22 23 26 28 28 29 30 31 32 33 34 33 33 34 35 35 34 35 37 38 38 36 35 36 36 37 38 37 36 34 32 30 27 25 24 23 21 20 20 20 20 20 19 18 18 20 21 20 20 22 22 21 19 16 12 15 17 18 17 15 13 16 23 16 9 13 15 15 15 17 18 16 15 14 13 12 13 13 12 11 11 10 10 9 7
23 22 22 22 23 25 27 27 28 29 30 31 33 34 32 33 33 33 33 32 33 38 38 37 36 35 37 38 38 39 38 37 36 34 33 30 28 28 26 25 23 22 22 22 22 21 19 20 23 23 21 21 22 22 20 19 18 12 16 17 17 20 19 15 17 23 13 5 13 19 17 16 18 18 16 15 15 15 15 16 15 13 12 11 11 12 11 10
24 22 22 22 23 24 26 26 27 28 29 30 32 33 32 32 32 32 32 30 33 39 38 37 36 35 38 39 38 37 37 37 36 35 33 32 31 29 26 25 25 24 23 22 22 23 20 17 20 22 22 22 22 19 18 19 19 17 21 18 17 18 18 16 18 18 8 6 20 26 20 18 20 17 16 16 16 17 17 17 17 15 13 13 12 13 13 12
24 22 22 23 23 23 25 26 26 27 27 29 31 32 32 32 31 32 32 30 33 39 38 36 37 36 38 39 37 37 39 39 37 34 33 34 33 30 26 26 27 25 21 18 18 17 17 16 19 21 19 17 16 14 14 16 16 20 27 24 20 18 14 15 18 13 8 16 29 28 20 19 19 15 17 19 18 20 20 18 17 16 15 14 14 15 14 14
25 22 22 23 23 23 25 25 25 26 26 28 30 30 31 31 31 32 32 32 34 38 37 37 38 37 37 38 38 40 41 40 37 36 36 35 34 33 31 29 29 26 21 20 22 17 22 23 23 21 16 11 13 17 21 24 19 18 23 22 17 14 11 14 15 12 15 24 25 19 18 20 19 14 15 20 19 20 22 20 18 17 16 15 16 18 17 15
25 23 22 23 23 24 25 25 25 25 26 28 28 30 31 31 32 33 32 32 32 35 37 37 38 38 37 36 38 40 38 38 40 41 39 36 36 35 32 30 30 29 26 28 30 25 27 27 25 22 20 18 22 27 27 28 21 15 14 14 12 11 12 13 14 14 19 22 18 12 14 20 20 14 11 17 22 22 22 21 19 17 17 18 18 20 20 18
26 23 22 24 25 24 24 25 25 25 26 28 28 30 30 30 33 34 31 29 30 32 34 36 38 38 36 35 36 37 36 38 41 40 37 37 37 34 32 31 31 30 31 32 30 23 21 24 26 25 23 23 25 25 23 22 19 14 13 13 13 13 13 12 13 16 15 16 15 11 14 20 21 16 14 15 18 22 19 19 20 18 18 19 18 20 22 22
26 23 22 25 26 25 25 25 25 26 27 27 29 30 31 32 34 33 28 22 24 28 29 34 38 36 35 35 36 36 36 38 39 36 36 37 35 34 33 33 30 29 30 29 26 20 16 21 26 27 25 23 22 21 20 19 17 15 15 15 15 15 14 12 13 15 13 13 14 13 16 20 20 18 18 20 20 21 20 19 21 21 20 20 19 21 23 24
26 23 23 25 27 27 25 24 25 27 27 28 30 30 32 35 33 33 28 18 18 26 29 33 36 36 36 35 35 37 37 38 38 36 36 37 35 34 34 34 31 29 25 22 21 19 17 22 26 23 23 23 20 20 18 17 16 16 16 17 17 17 16 13 13 14 13 13 14 17 19 17 18 21 22 22 23 24 25 24 22 21 20 20 20 21 22 24
26 23 24 25 27 27 26 25 26 27 28 29 30 31 34 35 32 31 28 19 17 26 31 33 34 36 37 34 34 36 36 36 37 37 36 37 36 35 34 33 31 28 24 21 21 19 19 23 22 16 20 23 18 19 19 17 17 16 15 19 19 16 16 15 13 14 14 13 14 19 20 17 18 22 23 21 20 21 23 24 22 19 19 19 19 20 22 24
27 24 24 26 27 27 27 27 27 28 29 30 31 33 34 32 30 26 23 23 19 22 28 33 35 36 36 35 33 36 37 34 34 37 37 37 36 34 33 32 32 29 27 22 20 20 18 19 21 18 21 22 16 19 22 18 15 16 15 17 17 14 15 16 14 15 17 17 17 16 17 15 15 17 19 19 19 20 21 21 21 20 17 17 18 18 21 23
28 25 24 26 27 27 28 28 28 29 30 32 33 33 31 30 30 24 23 30 29 21 23 29 33 35 35 35 32 34 37 35 34 37 37 36 36 35 34 32 31 30 27 24 18 20 16 16 26 26 20 18 16 21 24 18 20 13 16 14 16 17 19 18 16 16 17 17 17 16 15 13 12 14 20 21 20 21 21 19 20 20 17 16 17 18 20 22
28 26 25 26 26 27 29 29 29 30 31 34 33 32 31 30 31 26 26 35 35 27 25 23 24 30 34 33 31 33 38 37 37 38 35 35 36 35 33 32 31 30 30 30 22 20 17 18 27 30 20 20 21 22 25 22 26 21 15 15 18 19 18 16 15 16 14 13 13 13 14 13 12 15 23 27 26 24 22 18 18 20 19 18 19 20 21 22
29 27 26 26 26 27 29 30 30 31 33 34 32 30 31 30 30 28 29 35 37 33 30 27 19 23 32 32 29 33 38 37 37 38 36 33 34 34 33 32 30 30 33 35 27 16 18 22 23 25 20 24 25 24 26 25 25 27 23 19 18 18 15 14 15 14 13 12 10 10 12 12 12 15 21 25 22 17 17 18 19 20 20 20 19 21 22 22
29 29 26 25 26 27 29 30 31 32 33 32 30 29 30 32 33 32 31 34 37 34 33 33 24 18 27 31 27 29 37 38 36 36 36 32 31 32 33 32 30 31 35 35 29 18 18 24 20 16 18 24 26 26 26 25 25 25 24 19 16 16 15 15 17 13 12 12 12 11 12 14 17 19 22 25 22 18 19 19 19 20 20 20 19 19 21 21
29 29 27 25 26 27 28 31 31 31 32 31 31 31 31 34 37 37 36 37 37 35 35 40 35 23 23 31 30 26 32 36 35 34 34 31 30 33 34 36 35 33 34 37 34 25 20 24 21 16 21 25 24 26 24 23 21 22 21 21 19 17 16 16 16 14 14 14 13 12 11 16 24 24 25 29 29 27 25 21 21 21 20 21 19 19 20 20
29 31 29 26 27 27 28 30 29 30 31 31 32 32 33 37 39 39 40 39 37 36 36 41 41 31 26 28 30 27 26 31 34 35 34 31 32 32 34 39 39 34 33 35 36 30 24 24 24 21 22 21 18 21 22 21 22 21 22 22 21 20 19 18 15 14 17 16 14 14 12 18 28 27 26 30 29 28 25 21 23 24 22 22 21 20 20 21
31 31 28 25 27 28 28 29 29 29 31 31 32 34 37 39 38 38 41 39 37 38 38 41 43 37 30 28 30 29 27 28 32 35 33 30 30 28 29 38 40 36 35 34 32 32 30 28 27 25 23 18 14 20 25 26 28 25 22 23 22 20 20 19 15 15 19 17 13 15 15 19 26 26 24 25 24 24 24 21 23 25 25 25 23 22 22 21
32 31 28 27 29 29 29 28 27 28 30 31 34 38 39 37 35 38 40 39 38 38 38 41 43 40 35 33 33 32 29 29 31 32 32 29 29 28 29 38 41 36 36 35 30 30 33 32 29 27 26 22 19 25 31 32 32 29 25 23 23 22 21 20 19 21 24 19 13 13 13 18 26 26 26 26 23 22 24 23 23 24 26 26 25 24 24 23
33 31 30 30 29 29 29 28 29 29 30 32 36 38 37 35 35 38 41 41 41 41 40 41 43 42 39 39 40 37 31 30 30 32 33 29 29 33 35 39 40 35 35 35 29 29 33 34 33 31 29 27 27 28 29 30 31 32 29 24 23 24 23 22 23 27 28 24 20 18 16 22 30 28 26 27 23 20 23 26 25 23 25 27 26 25 25 24
33 33 32 31 31 30 30 30 31 31 30 33 36 37 36 36 36 39 42 42 41 42 43 42 42 43 42 40 42 39 33 31 29 28 31 31 30 36 41 42 38 35 36 36 33 34 35 33 35 36 31 29 32 32 28 26 27 30 30 26 24 24 25 26 27 28 28 24 23 22 21 25 29 25 20 22 22 20 21 26 26 24 24 26 27 25 25 25
34 35 34 33 33 32 31 31 32 31 31 34 36 36 37 38 39 41 42 42 42 41 42 41 41 43 42 39 39 40 37 37 35 29 29 34 32 34 39 44 40 37 38 38 36 38 36 30 32 35 32 32 34 31 25 22 23 26 27 26 25 25 26 28 29 29 28 25 23 21 21 23 24 22 20 22 25 24 24 26 27 26 25 27 28 26 25 26
36 36 35 34 34 33 33 34 34 34 34 35 36 37 38 39 40 40 42 44 46 43 41 42 41 41 43 42 41 41 39 39 41 37 31 33 34 33 34 38 38 37 36 36 37 38 35 32 34 34 32 32 32 27 20 21 25 27 26 25 25 26 29 30 28 28 29 29 27 26 26 24 21 21 23 26 28 27 27 28 28 28 29 29 29 28 27 27
37 36 35 36 36 35 35 36 34 33 35 35 35 38 38 38 39 40 43 47 46 44 43 44 42 42 45 46 42 41 40 38 41 44 39 34 35 37 36 36 38 38 36 35 37 38 37 37 36 33 29 29 29 25 24 30 33 30 26 25 24 25 28 28 27 27 28 31 31 30 29 25 21 22 26 28 28 28 28 29 30 31 31 30 29 29 28 28
38 37 37 36 36 36 35 35 33 32 34 35 35 36 36 37 39 41 44 46 45 45 45 44 44 47 48 46 41 41 43 41 40 45 47 44 41 40 39 38 39 41 39 37 38 40 40 38 34 30 29 30 26 23 31 41 40 30 26 26 27 27 27 27 28 28 29 33 34 30 28 28 25 26 30 30 26 28 30 30 30 31 31 30 30 29 29 30
40 39 37 37 38 37 36 36 34 34 35 36 36 36 35 37 40 42 44 45 46 48 47 45 47 47 42 42 44 44 43 41 39 41 46 47 46 44 40 38 39 39 38 38 40 42 42 39 36 35 37 36 29 30 39 44 37 32 31 31 31 30 28 30 32 29 30 35 35 31 29 31 30 30 32 30 27 28 31 30 30 31 30 28 29 30 30 31
40 39 38 39 40 37 37 38 37 36 37 38 38 38 36 36 38 39 40 45 48 49 46 45 46 42 38 42 47 45 41 38 37 38 39 41 43 43 40 38 37 37 37 38 42 44 42 38 39 41 41 37 32 35 40 37 32 34 36 33 31 30 32 35 34 31 34 37 34 31 30 32 34 33 32 31 31 32 32 31 30 30 28 28 28 30 30 31
Wind_Direction
225 223 222 220 219 218 217 217 217 218 219 218 217 213 212 211 213 215 210 204 198 197 199 196 199 344 352 358 5 8 20 29 51 82 122 135 142 151 161 157 155 151 139 134 128 127 129 129 132 134 136 136 133 131 118 101 100 82 74 95 108 100 103 93 119 154 146 103 100 106 104 115 118 116 112 104 98 100 105 108 107 102 100 95 88 85 82 79
229 226 224 222 220 219 219 218 218 218 219 219 218 216 213 212 214 216 215 210 204 201 200 198 197 194 323 354 357 359 10 17 39 70 114 135 143 152 162 156 156 155 145 138 130 128 130 130 133 134 134 134 130 125 112 89 89 89 80 108 120 137 177 129 171 126 119 113 110 111 120 133 127 121 115 110 104 103 110 112 113 111 108 102 95 92 88 83
232 229 227 225 223 221 219 219 218 218 219 220 219 217 214 214 215 217 217 214 210 207 203 202 199 198 238 336 341 349 360 7 26 47 89 133 145 154 159 155 157 156 148 139 133 129 128 134 135 134 135 132 128 120 102 88 86 86 87 224 192 170 153 89 86 96 113 117 111 116 128 135 135 126 113 109 106 105 118 123 122 116 110 107 103 100 95 89
238 233 229 227 226 223 221 219 219 219 220 220 219 218 216 216 216 217 218 216 215 212 208 205 202 203 210 280 315 341 349 359 15 33 65 123 142 152 155 156 155 152 151 140 135 132 128 133 132 136 135 125 124 112 92 105 97 83 111 196 236 145 88 91 100 103 115 117 115 116 119 128 132 125 122 116 108 113 128 132 134 123 114 113 112 110 105 100
244 238 233 229 228 227 224 220 219 219 220 221 220 218 218 218 217 218 218 217 217 215 213 209 206 206 205 238 276 320 336 358 3 23 56 109 136 151 151 156 155 151 152 142 140 136 128 129 127 137 133 125 129 111 130 157 108 92 151 173 210 103 111 100 96 105 118 124 122 117 118 125 124 122 127 122 111 122 134 131 133 127 122 122 120 119 116 113
247 244 238 233 230 228 227 224 220 219 220 221 221 218 218 219 219 218 218 218 219 217 215 212 209 208 205 222 241 276 318 354 356 18 49 92 128 151 149 154 154 151 152 146 145 138 133 130 127 133 126 131 129 106 193 153 106 182 174 146 143 115 117 95 99 111 117 124 119 119 122 119 123 123 122 122 119 127 129 119 116 117 119 122 123 120 118 117
245 246 244 238 233 230 229 227 223 220 220 221 221 219 218 219 220 218 218 218 220 219 217 214 211 209 206 216 227 241 285 325 344 10 36 78 116 146 147 151 151 154 154 150 148 142 142 132 129 134 118 133 140 144 203 141 112 191 159 126 128 109 100 92 97 105 108 107 105 120 124 121 121 118 115 118 120 120 116 108 109 112 112 116 120 118 118 117
241 244 245 243 238 233 230 229 226 223 221 221 221 220 219 219 219 219 218 218 220 220 219 215 212 209 208 214 218 224 252 287 322 353 18 72 110 139 147 153 150 157 155 154 153 146 148 134 134 129 110 140 163 172 181 119 126 180 146 137 126 109 96 96 93 89 92 94 96 113 120 122 115 113 113 116 118 112 108 105 106 107 109 114 116 118 121 122
238 240 242 244 243 238 233 230 228 226 223 222 221 221 220 219 219 219 217 217 219 221 220 217 214 210 208 212 216 222 232 246 293 332 359 65 116 140 151 155 153 160 157 159 156 149 150 139 142 131 126 178 183 180 148 110 210 173 135 145 120 112 98 99 105 80 69 80 74 85 118 127 113 104 100 109 115 107 107 105 103 104 107 114 116 122 124 123
237 236 238 241 243 242 238 233 230 227 225 224 222 221 220 219 219 218 216 216 219 221 221 218 215 211 208 211 214 220 220 222 257 308 337 53 117 147 158 159 159 163 160 160 158 156 155 149 159 150 157 175 172 177 122 126 233 194 133 148 115 119 105 106 122 91 60 66 68 90 127 131 110 101 99 107 109 105 108 104 104 107 107 115 120 123 121 121
238 236 235 236 239 242 241 237 233 229 227 225 223 222 220 219 218 218 216 216 217 220 221 219 216 212 208 210 214 220 218 214 232 277 313 27 128 153 159 165 165 163 162 162 162 165 157 152 157 137 148 166 159 175 139 163 219 188 146 147 116 131 115 122 144 122 92 62 63 113 131 143 113 109 108 105 100 99 104 103 105 106 104 111 113 113 113 113
239 237 235 233 234 237 240 240 237 232 229 226 224 223 221 219 218 217 215 215 217 218 220 219 217 212 208 208 212 217 217 212 220 250 288 308 149 159 160 169 173 167 166 165 165 167 158 156 152 135 149 162 152 178 173 171 185 166 155 142 133 156 138 145 152 164 161 54 14 106 128 142 122 121 111 102 101 102 102 102 106 104 105 104 100 103 103 103
241 238 235 233 231 232 235 239 239 236 232 228 224 224 223 220 217 216 214 214 216 216 218 219 217 214 210 207 211 215 215 210 212 231 262 275 187 170 168 171 176 173 169 167 167 167 164 163 157 152 154 153 159 179 184 180 168 164 155 141 158 167 161 165 163 217 211 291 352 109 148 123 128 136 110 101 101 102 97 98 104 100 100 98 92 94 94 93
245 239 236 234 231 230 231 233 237 237 236 231 226 224 223 221 218 215 214 213 214 215 216 217 216 214 209 206 212 216 216 210 209 219 244 258 218 185 177 177 177 177 177 172 170 169 170 166 158 164 155 160 184 171 170 181 164 172 163 157 173 170 204 173 179 258 179 262 333 80 94 84 133 161 107 99 92 88 83 84 91 85 81 88 91 88 86 83
249 242 237 234 232 230 229 229 232 235 236 235 229 225 223 222 219 216 213 213 213 213 214 216 216 214 209 206 210 212 213 212 208 213 233 245 223 199 186 186 182 178 179 176 174 171 171 165 159 173 165 167 179 162 173 177 164 183 178 186 171 164 234 251 188 256 164 258 334 53 313 354 309 199 122 97 90 85 79 73 65 59 61 73 82 85 82 71
255 245 238 235 233 231 230 228 228 230 234 235 232 227 224 222 220 217 214 213 212 212 213 214 214 212 209 208 209 210 210 210 208 210 224 236 225 209 197 192 187 182 181 176 178 175 172 168 163 176 175 171 167 164 186 177 180 198 184 203 183 163 227 251 222 214 203 260 344 156 250 281 285 210 182 97 92 88 77 72 59 53 59 68 74 72 75 65
262 250 240 235 233 231 231 229 227 226 228 232 233 230 226 223 221 219 216 214 212 211 212 212 212 212 210 210 211 212 210 208 208 208 215 229 227 214 206 198 191 188 187 182 181 178 178 176 166 168 173 176 167 165 188 187 200 217 192 204 194 171 216 236 231 225 212 245 284 220 253 270 278 253 212 138 96 83 68 66 57 50 48 49 54 52 52 57
267 255 243 236 233 232 231 230 228 226 224 226 230 231 228 224 221 220 218 215 213 212 211 211 210 209 206 206 209 210 209 208 207 206 210 221 225 215 204 200 198 193 191 189 185 182 183 182 175 170 174 181 169 167 188 191 200 218 208 213 210 198 211 219 230 231 211 234 247 230 249 268 273 256 228 179 119 78 54 59 54 45 34 22 24 27 19 34
270 261 248 237 233 232 232 232 229 227 224 223 224 228 229 226 222 220 218 216 215 213 211 210 209 210 208 207 208 207 206 208 207 206 209 214 219 218 207 202 203 199 196 192 190 189 186 187 186 179 179 180 170 177 187 184 218 227 203 219 240 224 213 219 231 234 224 230 244 240 248 266 270 253 242 239 200 179 23 47 50 41 35 17 8 7 357 6
275 266 254 241 233 232 233 233 231 228 226 222 220 222 226 227 224 221 218 216 217 215 212 210 210 211 210 209 209 205 204 207 207 206 208 211 214 215 209 205 207 205 202 196 194 197 192 194 194 180 181 182 177 180 169 161 233 242 207 209 236 235 232 243 234 226 236 236 239 241 244 258 267 259 249 245 235 224 249 356 27 9 34 12 346 350 348 355
279 270 259 245 235 232 233 234 232 229 228 224 219 218 221 224 225 222 219 217 217 215 214 211 211 210 209 209 207 203 202 203 205 205 206 209 212 213 210 208 211 209 207 199 195 201 199 198 198 184 181 188 186 174 161 178 207 214 212 204 210 226 247 263 255 241 246 239 235 240 244 254 262 265 261 254 250 245 247 277 307 283 278 325 310 321 333 349
282 275 263 250 237 232 234 235 233 230 229 226 221 217 217 221 224 223 221 219 217 216 215 213 211 210 207 207 205 204 204 201 202 205 206 209 210 211 211 209 209 209 211 205 200 204 200 195 199 189 178 188 194 177 175 201 200 189 199 203 203 216 223 236 246 253 251 236 232 237 243 251 255 258 265 265 261 257 249 259 282 284 267 253 271 292 312 335
281 277 267 254 240 232 233 236 234 231 230 228 224 219 217 218 220 221 221 221 219 216 215 214 212 209 206 205 204 204 204 201 201 203 206 209 208 208 209 207 204 206 211 210 207 206 199 199 199 184 174 192 207 195 191 202 195 182 187 197 200 204 218 233 245 259 253 235 236 238 236 244 249 252 260 264 263 262 254 257 271 281 279 271 267 270 285 312
278 277 270 258 244 234 233 237 235 231 230 229 226 221 218 217 217 218 220 221 220 218 216 214 212 209 207 205 203 202 201 201 201 201 204 206 207 208 206 205 203 206 209 206 208 206 197 201 196 185 189 199 202 201 195 186 188 191 182 190 201 202 224 243 254 260 251 234 234 236 236 243 246 247 254 258 258 262 261 261 265 266 277 278 270 271 274 292
274 274 271 260 247 236 233 237 236 232 230 230 227 223 220 219 216 215 217 220 220 219 216 215 212 210 208 205 203 201 199 200 200 200 202 202 205 205 203 206 203 203 205 202 205 202 197 199 191 191 201 199 191 194 195 177 182 211 192 189 199 211 239 248 250 255 253 246 246 242 242 247 249 246 245 249 251 257 262 267 267 260 269 278 272 270 271 279
270 270 269 260 248 238 233 237 238 233 231 230 228 225 221 220 218 214 214 217 220 219 216 213 211 209 209 206 203 202 200 200 200 200 200 198 200 200 200 205 202 201 202 202 204 197 198 204 195 195 198 193 187 189 196 178 169 217 225 210 194 193 224 238 245 256 255 263 267 250 240 242 249 246 235 239 247 249 252 256 260 261 266 273 272 271 270 270
266 266 266 259 248 239 234 236 238 234 232 231 229 226 222 221 219 215 212 214 219 220 215 213 210 208 208 206 204 204 202 200 200 201 200 196 198 199 198 199 199 203 201 200 205 195 197 209 201 195 191 191 192 190 196 175 158 203 238 237 214 194 204 212 234 253 247 250 262 250 244 242 248 254 244 241 245 247 254 257 254 258 267 268 265 269 271 266
263 262 262 256 247 240 235 235 237 234 232 231 230 226 224 222 220 216 211 211 219 220 215 211 209 208 209 207 204 204 204 203 202 201 200 197 199 201 200 200 198 203 204 201 203 200 200 204 199 197 192 195 194 187 198 177 160 200 215 219 230 214 208 211 226 243 234 224 245 247 251 243 244 259 259 251 251 253 257 259 254 252 260 266 261 261 267 266
260 258 257 253 245 239 236 236 236 233 231 231 230 226 224 222 220 216 210 209 218 219 214 211 209 208 210 207 203 204 204 203 202 201 201 201 200 197 198 201 196 197 203 196 191 207 218 200 194 200 195 196 186 169 204 202 182 211 211 206 227 229 220 222 225 233 242 237 238 245 258 252 246 253 256 255 255 258 260 257 258 259 263 269 265 260 262 265
257 254 252 249 243 237 236 236 234 232 230 230 230 227 224 221 219 216 211 212 219 219 214 211 209 208 209 206 203 206 206 203 201 200 201 203 202 199 200 201 194 188 189 183 176 201 227 208 195 195 172 170 195 186 200 208 200 214 215 211 230 238 224 223 225 222 232 239 240 247 256 255 251 242 257 273 264 254 261 264 263 265 271 274 269 267 265 263
255 251 247 245 241 236 234 235 233 229 228 229 228 226 223 220 218 214 210 213 220 221 215 211 210 208 208 206 205 208 207 204 204 203 202 201 202 203 201 198 195 184 180 187 188 199 216 205 195 197 174 169 204 210 206 207 207 208 211 213 219 224 223 224 230 229 230 242 255 260 245 249 257 241 238 277 278 264 258 262 265 263 267 271 268 268 268 265
252 248 242 241 239 236 233 233 231 226 227 228 226 225 221 219 218 214 210 213 218 222 218 213 211 208 207 206 207 208 206 206 209 207 204 203 203 204 200 198 201 192 186 195 200 203 208 199 197 205 197 187 197 212 218 219 220 209 198 206 205 212 232 233 233 243 250 257 258 250 230 237 256 254 219 230 269 276 260 255 266 266 264 268 268 266 267 266
250 244 238 237 238 236 232 231 228 224 224 225 225 223 219 217 216 212 207 210 219 223 221 217 211 207 207 207 206 205 205 209 210 208 208 206 205 206 202 200 201 198 195 198 199 202 202 199 203 205 207 205 192 199 223 226 222 213 197 205 211 213 230 236 231 242 257 263 255 240 227 228 244 259 244 228 237 255 258 259 264 264 265 268 267 265 266 268
247 241 236 235 236 236 231 228 226 223 221 223 224 222 219 218 214 209 202 199 223 223 215 216 212 206 206 206 208 207 205 209 208 205 209 208 205 207 204 201 198 193 195 197 196 200 201 207 215 211 209 216 198 190 216 224 219 215 198 206 220 216 222 236 240 243 249 257 254 244 241 246 252 255 255 248 240 241 255 264 261 259 264 265 264 267 269 270
245 238 234 234 236 236 231 228 224 221 219 221 224 221 220 218 212 210 202 193 230 233 217 214 210 207 207 204 208 210 206 210 210 206 208 208 207 207 206 204 199 187 181 191 203 201 201 218 232 220 209 220 206 188 207 216 215 223 208 207 221 221 224 235 236 238 239 234 238 250 259 263 257 252 253 254 250 245 251 259 257 255 260 264 267 270 269 269
242 236 233 234 237 236 232 228 223 221 218 219 224 222 221 218 208 208 203 192 217 232 218 216 210 205 207 204 206 211 207 207 210 208 209 210 209 208 208 206 202 191 173 179 210 211 201 227 246 230 210 217 201 189 211 209 200 234 237 212 215 224 232 242 248 250 244 225 227 257 275 270 260 264 267 259 251 250 251 254 256 256 257 264 269 272 271 273
240 234 232 234 237 235 233 229 223 221 218 219 224 222 220 215 201 201 205 196 201 208 205 213 212 204 205 204 204 211 209 205 207 208 208 210 209 207 209 204 203 202 178 166 200 216 196 211 240 239 223 221 200 193 216 198 166 216 257 224 210 216 218 224 234 244 248 236 235 254 265 261 260 264 268 266 262 260 258 253 255 257 254 259 266 271 275 278
238 233 232 234 236 234 233 231 225 221 218 219 224 222 219 212 199 203 212 202 200 204 194 194 208 209 204 202 204 211 210 207 207 207 205 210 211 207 208 204 202 203 182 163 178 215 206 197 233 248 238 230 217 200 217 205 169 180 221 217 213 220 225 231 223 216 231 244 246 253 256 255 257 255 259 264 265 262 258 253 258 260 254 253 260 268 273 276
238 232 230 232 234 233 232 232 228 222 220 220 221 221 219 211 204 212 217 208 208 215 202 182 192 216 209 201 206 215 213 208 211 210 205 208 212 210 207 204 204 203 188 168 162 199 214 195 223 255 246 234 230 209 211 217 198 189 194 201 209 213 222 245 243 218 215 236 245 249 257 260 255 248 253 259 262 264 263 260 262 264 259 256 259 266 270 273
237 232 229 229 231 232 232 232 230 225 223 221 219 220 218 213 214 218 215 210 211 215 206 186 181 208 211 200 202 220 220 211 210 212 208 206 210 213 208 202 205 208 199 183 170 182 204 190 199 237 231 228 235 223 210 213 221 217 203 199 209 211 208 223 240 234 214 228 246 242 248 258 248 236 242 258 270 277 277 274 272 270 267 265 264 266 269 270
237 233 228 226 228 230 231 233 232 228 226 221 217 218 217 214 217 217 212 211 212 212 208 197 186 183 197 199 196 210 224 219 210 209 209 206 207 212 208 203 206 208 204 200 193 190 196 194 195 209 219 227 234 235 223 205 216 237 227 212 212 218 222 221 229 234 224 228 242 238 240 255 255 247 247 258 268 272 275 277 276 275 272 270 270 268 269 272
235 233 226 224 227 228 231 233 233 230 226 221 217 217 218 217 216 214 210 210 211 211 210 205 199 191 189 196 195 197 215 223 217 211 208 207 211 215 211 208 210 208 206 208 206 202 202 205 206 208 224 240 235 233 234 208 201 227 238 230 219 216 225 228 224 231 235 233 236 238 235 245 253 255 253 257 262 266 269 273 275 277 276 273 273 271 271 273
232 233 226 223 226 227 229 231 231 230 226 221 217 218 220 221 219 216 212 208 208 210 210 208 209 207 202 200 197 194 202 215 218 212 208 209 214 220 221 217 213 209 210 212 210 210 212 212 210 208 223 245 231 220 230 218 204 209 221 228 227 220 224 229 224 229 235 232 229 232 232 243 256 261 260 260 260 261 264 266 270 274 275 274 273 273 273 273
230 232 226 222 224 224 227 230 230 231 227 221 219 220 222 222 219 215 213 208 206 209 210 209 211 215 215 209 198 191 198 211 214 209 206 211 215 217 225 225 215 210 216 216 211 217 221 219 215 208 212 224 219 214 223 224 218 212 209 217 225 223 226 234 237 240 239 234 230 234 234 249 261 264 263 262 260 261 265 266 266 270 273 274 273 272 273 274
226 229 226 224 224 224 225 226 225 227 225 221 221 222 222 222 218 214 212 210 207 207 208 209 211 212 216 214 203 195 199 206 208 208 205 206 215 218 222 226 216 209 219 218 211 222 227 224 225 219 209 213 221 224 227 229 229 223 214 214 221 222 223 226 234 246 249 242 235 236 235 243 252 256 261 265 261 260 269 272 271 270 272 274 272 269 270 272
224 225 225 224 223 222 222 224 225 227 224 221 221 222 220 219 217 213 212 212 210 209 209 210 211 212 213 215 210 205 208 204 198 209 212 206 216 225 226 227 218 210 218 217 209 218 224 222 228 227 213 211 222 231 235 236 236 236 230 223 221 224 225 223 227 240 249 246 239 237 233 235 245 252 262 270 266 258 267 276 278 277 276 277 276 272 272 274
221 222 222 222 221 220 221 223 225 226 225 222 221 220 219 218 216 213 210 211 212 210 211 211 212 213 214 216 213 208 213 211 198 200 210 204 213 231 228 224 221 216 219 220 214 223 228 222 228 232 219 213 222 230 240 245 241 241 241 234 226 225 227 229 231 235 244 246 243 245 242 236 241 250 257 266 269 268 273 278 281 283 283 282 281 279 278 279
220 221 222 223 221 219 218 220 221 221 224 224 221 219 219 218 218 215 208 210 212 210 210 212 211 213 215 216 216 209 209 213 207 204 206 197 206 230 227 215 220 222 222 224 223 228 233 225 226 234 230 225 226 223 229 242 240 236 237 236 232 230 230 232 234 236 243 246 245 249 251 245 244 251 255 261 270 274 278 281 285 289 289 286 285 285 283 282
219 220 220 222 222 219 218 221 222 221 224 226 223 221 219 217 218 217 210 209 211 210 211 213 210 212 216 215 216 214 208 207 208 210 213 203 204 226 229 214 216 220 219 224 227 227 231 230 230 236 240 240 234 223 220 227 225 223 227 231 233 236 237 239 239 238 242 249 252 253 254 253 254 259 261 266 275 281 282 285 289 291 291 288 286 286 286 285
217 220 219 221 222 221 220 222 222 221 224 227 226 224 221 217 217 218 212 207 209 210 210 212 211 212 215 213 213 216 213 209 207 208 212 210 207 217 226 219 217 220 218 220 225 227 229 232 234 233 234 236 231 226 232 231 225 223 227 230 231 233 236 240 241 240 243 247 250 253 257 260 261 262 266 270 275 280 282 285 287 288 287 287 286 285 286 285
216 219 219 219 221 220 219 220 219 219 221 224 224 223 221 219 217 217 213 207 209 212 209 210 215 214 213 213 214 216 216 215 216 213 212 214 214 217 223 222 220 223 221 217 220 225 227 229 232 230 228 229 222 220 231 235 233 233 232 230 231 233 236 239 237 237 242 245 246 252 262 267 266 265 268 272 274 277 279 282 285 285 283 282 282 282 282 281
217 217 217 219 221 219 218 219 217 217 221 222 222 222 220 221 220 217 215 211 210 213 211 210 216 215 210 214 217 217 217 218 221 221 218 218 221 224 227 226 223 223 223 219 220 224 225 225 230 235 235 234 229 230 236 237 235 235 233 231 232 232 233 236 236 235 239 244 248 255 261 265 267 268 271 275 279 280 282 284 285 285 283 281 280 279 278 277